GFSSGP_250_rhum_231.txt.gz
RH
18 16 16 38 30 34 81 85 95 62 46 62 100 41 78 60 40 18 17 26 21 27 34 24 40 43 47 40 41 40 46 64 74 100 100 100 100 100 76 37 87 59 90 78 62 80 88 97 89
18 15 15 14 17 26 78 60 58 25 42 82 44 37 95 79 36 14 18 23 26 27 32 32 42 44 37 37 32 28 44 62 68 100 100 78 98 100 80 48 53 49 66 91 83 87 99 100 100
17 25 47 78 88 50 68 74 69 37 30 24 28 38 43 58 53 12 20 24 24 34 21 47 30 34 25 24 24 25 39 71 59 100 87 64 83 100 99 76 50 45 48 50 83 99 100 100 94
12 14 50 32 42 100 94 100 83 30 29 25 50 100 31 58 24 15 17 29 30 27 26 52 40 22 17 18 22 22 25 60 62 96 88 94 78 100 86 70 61 56 68 61 67 98 100 98 100
10 99 100 60 75 97 100 86 79 33 45 20 23 20 23 27 24 16 14 26 25 30 40 53 43 31 22 23 44 34 35 64 58 77 100 99 81 85 100 63 60 40 98 64 42 57 76 68 84
8 17 87 100 99 72 16 15 11 18 29 18 19 22 36 33 22 24 14 21 31 36 54 51 44 33 20 38 40 33 45 77 67 98 97 87 72 69 100 88 66 49 74 82 44 49 85 60 65
7 11 78 80 58 53 27 15 26 14 26 100 33 40 38 66 48 29 22 31 50 51 60 44 47 30 28 41 31 42 56 84 74 72 96 97 100 100 92 100 86 69 88 97 58 30 56 60 73
8 44 100 99 66 37 24 26 10 10 6 18 79 98 92 88 83 41 45 67 50 77 44 33 25 29 40 32 44 49 65 83 84 63 100 97 78 80 82 100 93 79 48 59 26 33 59 100 69
8 9 12 22 15 40 83 54 15 11 12 76 81 100 60 98 98 40 29 42 53 54 29 28 24 54 34 43 52 60 87 63 95 93 96 91 100 93 76 99 97 52 49 71 29 30 45 79 92
9 8 10 13 13 10 67 48 17 17 24 77 97 100 92 86 49 35 29 44 60 28 31 28 42 55 41 41 56 75 100 66 53 100 100 99 87 66 79 100 91 38 42 80 27 33 41 78 99
14 12 14 24 19 13 24 28 42 38 32 86 100 98 100 92 46 29 46 39 51 42 61 67 64 73 44 40 71 94 93 64 58 66 86 100 100 100 100 80 85 38 41 72 52 44 64 88 91
18 21 17 17 18 18 14 21 72 67 84 96 100 100 99 97 67 30 32 33 50 100 100 46 38 62 47 36 61 100 100 66 70 52 65 92 100 100 100 95 74 46 46 52 50 80 96 100 100
18 21 23 23 22 26 26 55 68 80 88 84 100 100 99 100 36 64 70 85 93 96 82 73 67 44 48 46 40 83 88 88 100 80 61 79 94 100 93 47 42 54 64 64 51 95 80 85 53
14 18 20 23 26 28 27 43 64 63 73 64 81 95 68 63 71 85 100 98 99 100 100 94 98 74 77 78 41 68 88 66 89 81 59 95 98 98 86 45 45 54 56 61 36 100 81 79 60
12 12 18 22 26 29 31 28 30 45 37 52 44 62 99 64 100 100 100 100 100 100 100 99 100 100 100 89 89 71 72 84 99 69 90 64 94 83 90 84 42 46 56 52 62 87 100 96 82
12 13 13 16 20 26 29 28 27 27 36 84 36 70 94 57 66 82 100 100 98 100 100 100 99 81 100 93 100 83 77 100 92 62 83 57 82 71 54 86 41 48 34 50 98 93 74 44 63
13 12 12 13 14 20 25 26 26 26 85 88 90 74 56 51 73 87 84 99 100 100 100 100 100 97 100 100 100 50 90 100 69 56 74 96 84 29 26 77 94 62 62 90 100 64 48 79 100
11 12 12 13 14 14 19 24 23 23 64 82 94 52 41 45 76 55 49 74 82 100 96 74 43 89 99 100 99 59 84 78 100 93 88 83 100 97 22 64 71 54 66 70 51 72 73 52 96
10 11 11 12 13 12 13 17 20 21 20 21 16 15 18 21 25 50 49 38 36 35 38 32 43 100 100 100 98 78 100 76 80 100 78 94 100 97 33 66 38 23 98 38 29 46 100 100 100
8 8 12 13 13 12 12 13 17 19 20 16 14 12 12 12 11 19 22 37 28 28 20 39 85 100 98 100 64 81 99 59 97 72 55 74 92 53 34 39 25 21 35 62 38 42 100 100 100
9 9 8 11 13 12 13 12 13 14 17 14 12 10 12 20 22 11 11 10 10 11 47 100 94 92 80 100 96 95 100 76 97 49 46 58 93 98 53 24 47 41 28 36 76 42 94 100 100
10 9 8 9 10 12 13 15 18 20 13 12 11 14 29 34 30 10 9 9 10 11 100 83 42 37 38 37 76 100 100 98 93 67 54 67 52 89 28 32 47 70 48 45 49 85 84 100 100
11 10 10 10 11 12 15 16 14 14 12 11 11 21 71 65 54 17 10 9 25 12 14 12 6 10 16 18 50 100 99 92 92 90 77 68 92 74 43 55 66 49 80 92 66 78 61 100 100
11 11 11 11 11 11 11 15 14 14 14 15 14 51 74 52 43 33 15 9 8 8 10 9 10 29 57 100 100 96 85 70 99 88 67 46 79 93 72 88 100 58 80 77 75 49 52 77 78
12 12 11 11 12 11 11 18 66 25 16 19 61 80 60 50 44 38 15 11 24 52 9 14 36 36 60 96 69 63 100 100 100 89 50 50 51 74 58 46 85 70 65 100 71 63 83 79 90
13 12 12 13 13 13 12 13 100 62 16 16 26 55 30 38 49 44 42 22 13 12 14 38 31 45 45 51 43 71 100 100 93 99 63 54 50 37 50 62 100 100 84 47 69 66 62 57 71
14 12 12 12 14 13 14 15 13 16 32 97 96 100 88 41 32 74 46 25 10 9 21 29 31 40 100 100 46 68 100 100 100 85 97 45 79 97 100 100 93 51 67 61 64 66 35 33 35
15 13 15 17 16 13 17 20 46 48 99 90 80 100 100 100 95 34 12 10 9 9 21 27 50 48 100 100 86 99 100 100 100 100 100 100 100 93 100 100 60 48 68 74 78 67 57 36 39
14 15 17 21 20 16 16 23 100 90 100 100 100 68 76 54 19 11 11 10 9 17 51 94 93 65 95 96 97 70 100 100 99 100 100 99 98 100 100 84 49 90 46 32 42 38 50 52 60
14 15 18 20 31 18 17 42 100 98 100 100 85 82 57 35 21 21 15 11 10 100 94 100 82 78 73 85 66 44 45 92 100 100 100 100 100 100 99 100 88 98 100 100 82 57 37 23 37

GFSSGP_250_rhum_234.txt.gz
RH
17 19 22 26 51 33 98 99 100 80 84 44 95 50 37 64 65 39 14 21 22 18 18 36 30 26 21 17 22 25 25 39 48 82 87 53 58 98 98 58 51 44 41 42 54 86 100 100 83
15 16 17 18 29 35 79 100 100 78 49 49 49 33 47 45 35 39 14 21 25 18 23 31 36 30 28 20 25 27 23 41 58 98 67 49 58 100 100 70 63 51 54 45 50 100 100 100 100
15 15 13 9 21 82 41 69 74 100 70 24 30 98 100 66 23 28 20 22 26 21 27 31 50 39 44 25 51 38 34 52 50 92 100 68 66 93 72 70 68 78 60 36 62 87 99 100 92
11 20 20 35 44 95 64 68 66 98 79 37 27 56 88 54 23 33 21 18 23 25 36 37 50 45 46 38 33 29 42 62 64 59 96 92 86 54 100 89 72 69 61 58 60 47 58 71 61
10 12 18 37 74 48 94 98 98 94 99 86 52 37 47 33 27 33 25 17 23 41 35 31 45 34 28 45 34 45 52 74 81 74 89 95 78 52 69 87 91 66 66 54 44 46 59 86 47
8 10 21 45 99 85 89 99 93 52 75 36 39 35 33 28 43 57 44 28 35 43 40 35 33 30 34 51 39 54 64 89 87 75 74 63 36 46 86 77 100 80 36 44 32 45 100 74 64
7 9 17 83 84 100 99 95 77 57 29 11 73 93 60 88 57 74 54 31 57 36 32 31 30 36 40 32 37 64 78 72 87 80 96 73 64 86 82 80 100 96 46 62 30 76 89 74 69
8 9 12 28 37 36 47 63 25 87 26 16 23 35 69 64 52 30 50 24 56 46 34 32 29 52 41 41 42 56 92 72 68 92 90 99 69 95 92 81 80 87 39 65 24 34 58 72 86
8 7 58 88 72 76 80 40 24 20 13 13 10 75 79 100 70 32 35 24 37 52 48 50 66 80 52 42 48 60 95 87 70 68 100 95 91 84 92 70 92 96 37 74 36 38 76 95 100
7 7 8 24 36 39 24 17 20 41 14 10 19 36 48 86 100 53 36 40 46 45 54 97 100 90 46 33 56 56 82 96 76 78 76 100 98 74 99 87 99 89 43 65 58 66 100 100 83
9 6 8 8 8 8 9 11 22 22 12 14 33 73 65 96 81 98 75 40 44 79 98 100 89 56 48 57 62 51 51 61 88 89 84 69 100 99 89 100 100 65 37 40 76 100 79 82 100
13 10 11 8 8 11 17 22 20 14 25 24 38 42 82 73 100 100 100 97 91 99 100 100 83 69 96 89 80 72 73 74 81 92 100 50 77 99 91 100 48 50 45 32 98 72 93 77 74
15 16 16 14 11 12 20 14 22 34 51 51 82 64 100 94 100 98 95 100 99 100 100 93 100 100 98 92 98 91 89 71 86 100 68 70 93 87 100 74 35 64 48 33 90 84 70 96 98
12 14 16 16 15 19 19 23 26 58 67 63 92 85 98 100 100 100 100 100 98 100 100 96 100 94 86 86 100 100 100 64 89 92 54 87 81 68 91 60 51 72 49 36 81 94 70 75 100
11 10 12 17 19 18 20 27 31 53 75 68 67 86 98 100 94 91 95 100 100 99 93 100 100 93 86 99 100 100 92 90 100 80 50 68 64 72 89 52 51 51 44 38 77 64 100 98 87
13 12 11 10 16 20 22 17 21 34 59 56 55 95 87 100 100 95 82 100 100 99 87 84 90 100 100 77 100 100 100 99 78 80 56 74 50 38 60 75 44 35 37 46 90 88 55 77 99
13 14 14 12 11 14 20 24 19 26 28 31 79 90 100 94 100 94 68 92 100 100 100 94 100 100 99 98 100 100 100 91 90 90 88 90 100 91 39 68 54 49 55 64 84 99 85 100 100
10 12 13 13 12 12 13 18 19 26 26 25 86 100 100 88 84 53 52 65 55 64 99 100 92 100 88 100 100 100 100 91 82 98 69 70 48 93 49 66 78 52 72 90 84 71 88 99 100
8 9 12 13 13 13 13 12 17 20 25 25 28 95 77 37 47 41 24 28 47 45 42 74 100 100 65 79 100 100 100 90 79 95 91 68 46 100 34 48 61 50 52 53 40 46 100 84 98
10 8 9 12 14 13 14 13 12 16 20 22 22 37 29 15 14 13 12 12 16 30 32 28 30 23 98 100 100 100 92 87 88 97 94 85 100 76 27 23 24 25 57 73 28 31 91 86 97
10 10 10 9 11 14 15 13 12 12 14 17 19 19 18 14 13 11 11 11 10 11 12 12 14 62 100 100 100 80 76 98 100 100 87 82 75 94 71 23 24 22 46 31 66 48 100 75 96
12 10 10 11 9 10 14 15 36 39 26 14 18 20 15 14 12 12 16 23 14 9 9 9 14 70 100 33 11 16 22 42 100 98 94 47 63 83 50 34 26 50 55 56 46 63 91 84 100
11 11 11 10 11 9 11 12 22 52 82 68 58 54 14 12 13 22 61 46 27 17 9 15 22 45 17 8 15 25 67 70 100 98 94 48 39 60 70 34 43 61 78 50 59 72 73 77 96
12 13 13 11 11 11 10 10 12 14 33 21 56 89 17 11 25 42 50 33 23 19 15 19 9 11 7 16 28 71 89 97 100 100 100 89 70 47 49 49 50 78 92 49 92 92 72 53 93
14 14 13 12 11 10 11 10 11 12 16 15 14 28 19 18 16 51 48 38 31 20 28 25 16 8 11 30 40 66 65 65 100 100 100 100 80 48 72 50 75 54 81 74 67 100 79 85 100
15 15 14 12 11 11 11 12 12 16 15 21 21 16 15 24 64 63 25 36 34 27 40 39 12 15 27 32 60 76 56 98 97 100 100 100 92 47 43 51 54 40 88 100 52 69 73 76 86
14 17 14 12 12 12 13 13 16 60 56 35 58 25 17 31 53 73 73 78 63 72 65 18 18 26 56 85 73 97 85 88 100 100 97 76 58 49 65 73 60 73 98 67 64 64 77 70 67
16 15 16 14 13 13 14 13 16 45 92 100 37 39 94 74 38 82 100 100 84 45 28 10 28 46 58 86 100 100 100 100 100 100 100 84 57 51 87 83 98 100 70 58 66 65 69 70 39
15 18 18 16 13 13 16 15 17 25 32 48 87 96 66 42 30 28 26 34 19 17 10 50 100 100 98 100 100 100 100 100 100 100 86 100 84 78 85 97 100 100 68 71 49 37 53 66 62
18 20 17 16 12 12 16 16 27 33 19 99 78 91 52 46 28 43 69 78 33 18 33 92 100 100 100 89 71 85 66 99 100 100 100 100 100 100 100 100 100 100 76 92 100 90 54 27 27

GFSSGP_250_rhum_237.txt.gz
RH
15 23 21 32 25 48 35 86 100 80 100 84 53 60 58 55 48 21 20 18 29 24 21 31 34 49 44 32 42 36 33 41 43 85 68 55 64 46 72 71 64 64 48 63 99 88 100 100 100
12 12 14 21 20 22 23 79 84 96 100 74 38 45 72 99 83 29 27 18 23 24 34 29 39 57 49 42 28 34 40 52 58 70 58 74 79 43 59 81 74 83 56 74 100 100 100 72 76
9 10 9 12 16 15 52 56 57 78 95 98 52 39 62 66 88 32 32 26 19 35 32 32 43 45 34 40 33 48 47 48 69 50 87 57 74 54 56 88 88 93 57 64 53 100 100 100 34
10 10 11 9 13 14 58 78 90 96 80 87 100 79 27 25 20 26 35 33 22 38 34 39 43 40 38 41 35 61 72 67 53 53 59 67 53 33 44 41 100 78 40 34 50 73 72 57 33
9 10 12 15 13 23 40 75 100 87 82 89 90 63 32 33 32 47 53 48 32 42 48 46 48 37 43 33 32 55 70 63 65 61 57 54 43 34 44 47 90 87 54 26 57 74 78 48 38
8 8 10 12 34 85 80 77 100 100 97 85 63 19 39 51 54 59 70 56 28 57 43 46 47 38 45 40 42 54 86 72 71 77 75 58 55 40 60 52 64 100 66 26 43 63 80 69 46
8 8 8 44 38 53 77 99 100 100 97 63 38 18 15 29 51 42 65 69 33 62 59 52 54 53 70 50 52 59 90 91 78 73 98 98 76 53 44 57 88 100 68 32 66 95 100 100 47
8 8 8 9 30 76 64 96 100 84 59 53 53 15 10 49 63 37 46 55 28 45 55 62 89 100 88 52 61 69 78 94 71 89 93 93 98 86 81 68 99 100 47 55 50 100 100 100 45
8 8 10 9 10 48 76 90 82 59 41 38 26 12 11 51 70 55 78 32 34 39 46 77 92 85 75 58 65 80 86 78 62 65 93 89 100 98 54 69 100 100 44 48 59 100 96 63 53
8 8 10 9 18 28 55 48 48 64 35 26 19 16 12 23 35 62 98 84 41 59 87 99 100 65 78 87 82 84 92 87 72 64 95 99 97 95 60 65 96 100 64 58 100 70 86 92 38
7 8 8 12 27 64 96 82 59 14 11 36 24 15 21 45 45 44 96 100 89 100 100 100 100 82 100 100 89 85 92 90 77 64 67 62 88 83 67 39 92 92 59 67 95 56 74 97 60
9 10 11 11 9 8 7 8 10 9 13 36 16 19 61 64 62 58 96 86 72 89 77 80 53 100 94 97 75 93 98 90 69 76 67 51 84 100 95 58 100 46 76 100 90 95 81 89 76
15 12 13 12 14 9 8 9 11 13 10 12 39 33 46 72 100 94 100 97 99 80 100 87 88 100 94 81 78 90 95 96 71 59 44 48 63 62 73 73 53 53 51 72 96 88 77 79 86
13 13 14 14 17 15 11 11 12 17 12 26 55 57 77 89 73 94 100 93 92 98 78 88 40 92 100 98 99 100 100 98 82 73 45 50 47 51 55 64 42 56 58 51 94 67 92 68 95
11 10 11 13 16 14 16 15 14 14 20 38 66 67 100 83 87 76 82 100 95 100 100 100 95 100 94 100 100 100 100 82 99 85 48 52 50 52 64 67 46 64 60 60 81 100 72 90 84
13 13 10 10 12 15 17 19 22 14 17 39 60 78 90 100 96 100 82 97 99 100 100 100 64 87 100 100 98 100 100 98 100 87 62 58 98 65 71 62 44 48 53 84 95 69 70 84 100
11 13 14 12 10 11 13 19 20 18 14 20 48 73 62 81 84 100 100 96 90 100 100 100 100 100 82 100 100 96 100 100 99 81 94 100 94 78 65 52 47 40 59 64 90 86 83 85 93
9 10 12 13 13 12 10 11 17 18 19 17 20 40 46 100 95 79 79 69 55 88 74 79 86 82 92 100 100 100 100 100 97 84 100 81 66 100 82 53 54 60 80 100 98 80 98 94 96
9 8 9 12 14 14 13 11 11 15 19 24 21 24 30 91 100 47 39 46 31 23 42 56 100 97 100 100 96 97 100 100 100 64 94 96 74 79 67 52 70 67 59 84 45 44 81 81 26
13 12 9 9 10 13 13 13 12 11 13 17 22 23 24 43 58 77 18 13 12 11 12 18 30 29 53 27 61 100 100 100 99 43 90 100 96 63 54 42 45 38 38 54 57 43 78 70 77
14 13 13 11 9 9 12 13 13 12 12 19 52 43 22 22 22 23 16 13 12 13 14 11 15 18 12 41 77 100 100 37 11 38 100 100 93 78 63 23 20 20 24 51 49 57 92 89 73
15 14 12 11 12 10 9 12 12 22 44 48 33 36 21 19 21 18 14 13 14 22 18 12 9 9 14 57 100 100 37 12 20 52 88 100 100 64 45 50 41 35 57 68 53 35 51 89 100
15 12 13 12 12 12 10 10 13 21 45 52 56 43 48 17 18 18 12 11 18 49 34 15 12 17 33 21 87 64 11 38 71 100 94 100 89 51 50 32 41 48 64 100 61 60 62 73 97
17 17 14 13 13 11 12 11 12 18 34 37 50 46 69 70 61 32 11 31 56 45 35 22 18 30 27 21 10 12 33 71 86 100 82 88 98 66 37 33 40 42 63 96 69 62 86 97 64
18 17 16 13 12 13 11 12 12 13 16 15 26 36 43 46 59 43 15 19 40 44 30 31 23 34 46 9 11 22 44 43 59 100 100 100 100 96 71 49 57 56 64 72 91 84 80 100 84
19 17 16 16 14 13 15 14 13 12 12 13 14 17 27 15 20 23 14 27 50 49 32 41 63 55 23 17 17 54 86 53 64 100 90 93 100 100 85 56 49 56 59 43 79 97 47 64 65
19 19 18 16 15 15 15 14 12 14 13 12 11 16 23 15 16 15 14 26 68 64 66 77 51 35 21 27 53 68 63 78 56 83 90 90 100 100 93 92 45 56 57 56 90 66 61 61 51
19 16 16 17 18 17 15 14 13 15 16 16 12 12 24 24 24 15 28 39 37 59 64 33 19 25 72 58 59 49 94 100 94 100 100 90 98 100 100 80 92 72 62 100 68 62 68 67 58
21 18 19 16 19 17 15 13 13 15 20 38 42 28 51 45 49 35 38 42 32 69 41 39 36 100 100 100 84 78 64 71 78 88 100 96 63 53 59 44 66 89 99 100 90 76 49 51 60
20 21 20 16 20 17 17 14 14 18 20 28 62 89 91 58 36 39 40 54 94 91 25 79 74 70 78 78 80 92 72 85 70 100 100 98 82 55 61 55 92 100 100 100 100 98 83 95 54

GFSSGP_250_rhum_240.txt.gz
RH
26 20 25 24 21 30 32 42 100 83 66 68 99 36 39 41 39 65 30 30 20 29 35 39 40 37 33 36 38 43 52 46 63 58 51 64 58 52 42 94 93 92 78 61 68 100 100 83 65
10 14 14 16 22 19 19 41 44 32 44 86 74 37 43 44 27 44 36 35 23 38 39 35 43 35 38 39 42 60 63 61 62 51 55 54 68 56 40 60 100 58 61 49 100 100 98 90 46
10 8 9 10 9 10 15 47 83 62 45 60 56 66 94 36 32 31 37 41 33 37 46 39 36 38 39 35 40 54 61 62 66 69 59 59 52 28 36 53 99 55 38 66 94 97 88 71 58
10 10 10 9 8 8 11 26 70 72 60 43 38 37 100 35 39 44 52 52 44 37 42 42 33 40 47 39 51 47 82 72 71 70 66 43 45 36 46 52 94 60 49 47 89 84 41 40 54
9 9 10 8 8 9 10 11 44 90 76 62 60 55 100 16 37 43 68 63 50 36 36 40 44 43 67 55 62 60 96 83 85 78 74 62 49 51 37 49 86 90 61 83 99 63 48 40 73
8 8 8 8 8 10 16 24 52 52 75 65 96 87 51 18 30 46 48 58 51 44 50 46 67 79 79 67 70 71 89 76 76 85 90 96 81 52 50 43 77 100 66 93 100 81 34 28 42
8 7 7 8 9 17 35 56 49 45 51 46 92 74 38 21 16 52 40 40 28 25 44 64 78 74 56 67 65 63 64 80 83 100 100 100 100 95 96 48 76 100 75 76 100 99 88 34 54
7 8 8 8 10 11 52 62 52 37 60 82 94 43 39 23 18 58 46 33 33 34 54 73 94 87 62 82 70 66 70 77 90 99 99 78 94 100 58 87 74 97 63 65 94 90 89 81 64
7 8 9 10 9 19 24 57 64 52 54 83 63 43 26 20 11 24 30 44 73 53 85 93 98 99 83 91 80 72 70 65 70 74 75 73 83 81 79 59 62 100 62 98 82 77 100 100 88
8 6 6 9 10 9 10 23 81 87 76 75 45 34 23 17 14 24 32 73 92 100 100 100 37 76 91 80 81 89 75 65 52 58 43 48 57 65 76 45 77 100 55 80 78 88 100 90 66
7 9 8 8 7 8 10 11 24 60 69 52 43 18 32 25 18 35 63 98 92 60 76 67 26 100 80 70 64 70 90 66 71 52 34 37 49 64 75 46 64 100 54 91 72 53 58 56 74
7 7 8 8 7 8 12 47 58 93 87 50 9 10 17 15 33 71 80 85 69 67 42 92 38 98 51 72 74 94 94 72 92 78 39 41 53 63 73 69 90 58 88 67 75 54 62 54 62
9 9 9 7 6 8 9 21 34 24 10 9 9 12 12 35 33 90 80 88 99 85 66 71 59 50 57 76 75 100 96 70 88 92 50 42 46 56 70 87 77 46 72 99 64 58 60 85 94
9 8 11 9 9 10 13 13 11 9 9 11 20 17 26 45 86 77 78 100 99 94 46 78 63 74 67 70 100 98 92 73 70 100 67 47 51 47 58 62 47 56 54 89 68 70 92 86 100
13 10 8 11 12 13 13 14 12 11 12 14 25 47 70 73 93 85 96 88 92 87 100 82 77 82 90 99 100 77 66 96 82 91 74 57 60 55 55 74 56 59 60 81 66 72 77 100 100
12 13 12 11 10 12 12 14 13 12 12 14 20 42 53 77 92 84 100 100 91 96 100 97 87 76 70 100 100 51 48 71 87 90 84 93 83 60 50 55 58 62 59 83 85 70 66 94 43
9 11 12 12 13 12 12 12 12 13 14 14 20 32 50 54 70 82 93 100 100 100 100 100 100 100 84 86 49 68 100 75 100 95 80 82 73 90 87 40 45 47 59 98 94 78 80 100 98
9 8 10 11 12 14 13 12 10 11 13 13 19 21 24 43 81 96 99 100 100 99 99 94 97 93 99 88 96 100 100 83 66 99 99 54 98 100 76 47 43 56 67 83 89 87 100 49 27
10 10 9 9 10 11 13 14 13 11 10 10 15 22 23 29 57 70 95 73 63 94 65 64 25 55 100 100 100 97 74 45 86 83 49 50 65 100 85 40 49 66 86 80 56 47 69 58 30
11 11 11 10 8 8 9 11 14 14 12 10 11 22 24 25 24 36 37 74 59 16 12 12 11 11 14 26 15 17 63 84 75 89 49 93 57 78 94 34 68 44 48 54 56 56 58 66 38
12 12 11 11 10 9 8 8 12 13 13 13 10 11 15 20 30 26 25 36 47 26 14 12 13 18 12 22 11 18 49 83 95 94 100 100 85 88 76 26 32 29 30 30 50 52 80 97 91
14 13 13 13 12 12 11 9 9 12 14 13 12 11 12 24 42 20 19 19 20 14 12 18 29 27 15 14 29 25 28 87 89 35 100 100 92 85 69 46 24 24 32 62 64 47 38 52 72
17 15 14 13 13 12 12 11 10 10 10 12 13 13 22 49 39 54 28 16 18 13 12 25 30 18 27 35 35 28 14 39 28 55 100 100 100 91 62 47 45 36 42 66 93 60 56 63 73
19 17 16 15 13 12 12 11 12 11 8 9 13 15 41 52 61 68 74 50 21 16 40 44 35 28 30 29 30 13 12 47 34 47 91 100 100 98 85 40 33 39 48 52 67 82 66 69 72
17 17 17 17 17 14 11 12 14 12 10 10 10 16 52 51 58 67 76 56 26 29 37 48 43 36 38 34 17 16 24 43 37 40 55 74 78 95 99 68 57 54 62 57 71 60 91 91 55
16 20 17 18 19 17 16 14 13 13 12 11 11 13 32 52 55 60 55 32 37 21 45 82 67 50 40 27 16 21 27 64 35 67 55 63 67 87 100 90 68 62 71 68 61 58 75 64 56
20 17 17 18 17 16 16 16 12 13 12 11 11 12 22 29 25 25 28 16 14 36 52 70 77 53 25 16 35 42 50 53 74 100 100 100 100 93 100 100 100 78 83 58 67 78 79 68 60
22 20 19 21 18 18 17 15 15 15 14 13 11 11 13 14 26 26 20 15 13 27 71 73 40 29 19 63 51 88 96 79 100 100 100 95 94 56 98 100 100 94 82 66 66 100 80 73 58
25 20 22 25 21 20 19 19 16 16 15 14 12 12 13 24 15 30 15 18 30 62 52 32 24 37 90 70 65 65 69 60 92 98 100 81 76 75 100 100 100 90 96 77 81 94 98 88 58
22 22 22 26 22 21 20 22 18 15 15 15 14 14 18 64 21 22 24 48 40 35 20 23 43 53 50 70 45 49 53 59 60 71 59 78 76 82 67 55 54 44 100 99 100 93 91 88 86

GFSSGP_250_rhum_246.txt.gz
RH
22 34 33 20 24 22 26 23 56 42 39 25 34 36 43 45 58 44 37 50 50 29 26 36 36 50 56 52 48 56 73 79 81 52 46 49 43 52 100 58 44 87 75 73 71 100 89 98 94
15 14 19 16 14 21 30 19 16 13 13 22 27 36 46 54 59 67 30 60 51 25 29 39 53 64 56 58 57 56 55 68 85 88 43 47 42 50 100 95 69 74 90 78 72 100 100 100 92
13 11 9 9 9 20 28 23 15 14 10 13 15 25 43 48 82 76 25 46 47 31 24 37 61 52 44 56 55 54 64 72 76 100 77 51 57 76 72 80 91 100 74 58 46 62 95 100 92
12 12 11 10 10 23 10 8 8 8 8 9 13 28 58 59 100 64 27 44 36 33 39 41 68 57 40 52 65 55 60 72 88 82 100 78 82 77 56 100 100 91 99 55 40 46 76 84 83
11 11 11 11 9 8 8 8 8 8 8 11 20 28 35 48 87 54 32 46 42 23 30 68 87 76 49 60 56 60 53 69 88 99 86 98 100 80 74 58 62 91 100 34 58 68 64 73 70
11 11 10 9 8 8 8 8 8 8 9 13 18 24 31 55 55 68 45 50 54 25 37 65 96 100 65 51 44 69 58 71 78 100 72 94 99 100 83 90 65 74 100 74 61 74 88 78 61
10 9 9 9 8 8 8 8 9 8 8 14 30 32 28 39 80 69 51 51 62 62 62 98 100 57 74 39 42 75 71 77 67 76 48 94 96 88 88 62 79 47 100 84 90 75 64 54 50
10 10 9 8 8 9 8 8 8 8 8 9 28 43 28 67 86 76 46 28 27 34 71 100 44 40 55 28 34 62 80 71 67 79 46 45 78 100 72 89 93 100 100 73 85 83 65 43 52
8 8 9 9 9 9 8 8 7 7 10 15 36 60 15 74 79 79 32 30 24 41 79 56 38 34 42 29 35 50 92 77 65 69 57 45 48 70 69 53 57 45 90 84 87 74 47 43 54
6 8 8 8 8 8 7 8 8 8 16 43 74 90 60 66 69 48 19 30 83 100 85 59 53 43 36 35 50 46 90 94 61 48 56 38 50 44 54 58 40 38 62 76 87 58 44 53 66
6 6 7 7 7 7 7 7 6 8 11 21 16 10 10 48 35 47 15 23 48 98 73 69 43 48 38 41 47 75 90 100 57 69 52 54 38 48 37 45 38 48 62 45 45 67 63 64 85
6 6 6 7 7 7 7 6 7 8 11 11 10 10 12 21 20 15 10 36 48 77 55 72 49 65 49 43 61 91 100 92 59 80 76 74 52 38 48 50 42 42 37 64 73 80 80 100 100
6 6 6 7 7 7 7 7 7 8 9 9 11 14 16 18 21 8 9 42 65 76 94 68 69 87 66 45 47 46 48 88 72 72 84 91 64 58 38 38 42 57 39 36 43 86 95 91 100
7 7 8 8 7 7 8 8 8 9 9 9 9 11 24 19 10 10 19 29 48 72 88 82 51 88 86 49 48 45 54 89 85 95 100 93 58 73 70 61 40 66 46 35 42 98 64 94 90
7 7 7 7 7 7 8 9 9 9 9 9 10 11 12 12 14 25 50 37 95 75 96 98 97 44 100 73 72 79 78 81 77 100 100 85 73 94 100 66 55 36 44 43 28 52 100 83 92
6 6 6 6 7 7 8 11 11 12 12 11 12 12 13 15 14 32 73 73 100 66 50 72 98 88 100 100 99 59 42 69 96 100 100 85 98 41 87 74 55 42 34 37 38 88 100 72 100
6 6 6 6 7 8 10 14 13 12 12 13 12 12 13 16 18 24 40 56 90 100 72 59 68 97 100 100 93 61 51 36 77 100 100 100 100 51 62 67 41 41 42 53 42 95 98 47 64
8 8 8 8 8 8 9 11 15 16 14 12 12 11 12 14 16 19 26 32 50 95 81 60 62 100 100 100 98 75 46 28 98 95 97 100 100 90 48 73 36 38 49 45 57 84 68 45 70
9 9 10 10 10 10 9 8 9 13 16 16 14 12 11 12 13 15 19 18 36 68 75 54 100 100 100 100 46 24 14 24 67 70 88 100 100 100 70 82 67 33 36 45 48 52 100 47 27
9 8 9 9 10 10 10 10 9 9 11 15 15 14 13 11 11 12 16 19 19 49 91 95 97 93 89 73 44 37 49 85 43 58 100 100 100 63 75 68 100 78 30 32 40 27 70 49 29
11 10 9 9 10 11 11 11 11 9 8 9 11 13 14 14 12 11 11 22 22 38 56 76 75 64 48 41 41 49 41 68 100 100 100 100 100 62 71 65 58 80 42 48 42 34 28 48 50
10 11 13 13 13 14 13 12 12 12 10 9 8 9 12 13 14 12 11 16 17 24 41 42 39 43 45 28 46 30 33 80 100 100 100 98 100 79 73 75 31 71 32 33 29 46 49 29 55
12 13 14 16 15 14 14 13 12 10 10 11 11 9 8 10 13 14 13 12 13 26 35 26 31 20 17 20 15 21 31 50 98 99 81 89 64 74 69 84 72 54 37 22 57 70 47 40 51
12 12 14 15 16 16 16 14 12 12 10 11 11 12 9 8 10 14 14 14 13 14 32 31 44 26 24 22 16 18 30 62 72 52 71 64 66 100 81 91 70 41 34 47 42 43 50 56 61
14 14 15 15 15 15 16 17 14 13 13 12 13 13 12 10 9 11 14 14 14 13 29 34 34 23 17 19 22 20 21 34 32 50 69 100 88 76 81 85 84 68 34 65 66 50 54 45 62
15 15 16 15 15 17 17 16 15 14 14 12 13 13 11 12 10 10 11 14 14 15 33 44 35 24 18 16 11 18 26 30 17 61 99 100 100 100 100 99 85 67 47 44 64 62 51 47 52
15 15 16 16 16 15 14 15 14 15 14 13 13 13 12 12 11 11 11 11 14 15 40 50 42 26 11 11 20 36 42 26 28 74 72 88 100 100 96 100 68 71 90 76 76 85 71 44 44
16 18 19 19 18 17 16 16 15 15 14 14 15 14 13 12 13 11 10 11 14 16 43 39 34 19 12 20 30 39 23 32 76 89 99 100 100 89 95 86 80 81 82 98 94 94 88 63 56
18 20 22 20 20 19 21 17 15 15 15 15 16 15 14 12 13 12 12 10 12 16 42 38 24 14 16 28 40 24 80 89 100 100 68 93 96 96 100 100 97 100 100 99 73 78 85 93 91
23 20 22 21 25 23 21 17 19 16 19 18 17 16 14 13 13 12 12 12 12 12 17 25 18 15 18 43 31 63 99 100 100 100 100 100 98 100 100 100 99 89 100 100 100 100 100 100 100